GW1125 Weather Reports


time (UTC)temp
F
wind
direction
speed
knots
gust
knots
rain 1hr
in
rain 24hr
in
rain mn
in
humidity
%
barometer
mb
20260503010117 75 333 3.5 7.0 0.00 0.00 0.00 48 1011.2
20260503005618 75 79 0.9 1.7 0.00 0.00 0.00 48 1011.3
20260503005118 76 55 1.7 3.5 0.00 0.00 0.00 47 1011.3
20260503004617 76 85 0.9 0.9 0.00 0.00 0.00 48 1011.3
20260503004117 75 93 0.9 0.9 0.00 0.00 0.00 48 1011.4
20260503003617 75 326 0.0 2.6 0.00 0.00 0.00 47 1011.5
20260503003117 75 85 0.9 1.7 0.00 0.00 0.00 48 1011.4
20260503002617 75 72 0.9 2.6 0.00 0.00 0.00 48 1011.4
20260503002116 76 0.0 0.0 0.00 0.00 0.00 49 1011.3
20260503001637 75 76 0.0 0.9 0.00 0.00 0.00 49 1011.3
20260503001137 75 76 0.9 2.6 0.00 0.00 0.00 51 1011.4
20260503000618 75 45 0.9 3.5 0.00 0.00 0.00 50 1011.5
20260503000137 74 94 0.9 1.7 0.00 0.00 0.00 50 1011.5
20260502235617 74 81 0.9 2.6 0.00 0.00 0.00 51 1011.6
20260502235117 74 19 3.5 6.1 0.00 0.00 0.00 50 1011.6
20260502234617 74 42 2.6 5.2 0.00 0.00 0.00 51 1011.6
20260502234117 75 62 0.0 2.6 0.00 0.00 0.00 52 1011.7
20260502233636 75 6 4.3 7.8 0.00 0.00 0.00 51 1011.9
20260502233118 75 81 0.9 2.6 0.00 0.00 0.00 52 1012.0
20260502232617 76 85 0.9 1.7 0.00 0.00 0.00 50 1012.0
20260502232138 75 73 0.9 3.5 0.00 0.00 0.00 52 1012.0
20260502231617 74 48 1.7 3.5 0.00 0.00 0.00 53 1012.1
20260502231117 75 333 2.6 6.1 0.00 0.00 0.00 52 1012.2
20260502230617 74 64 0.9 1.7 0.00 0.00 0.00 54 1012.2
20260502230117 74 14 1.7 6.1 0.00 0.00 0.00 54 1012.3
20260502225617 74 62 1.7 3.5 0.00 0.00 0.00 55 1012.4
20260502225116 75 81 2.6 3.5 0.00 0.00 0.00 54 1012.5
20260502224637 74 59 1.7 5.2 0.00 0.00 0.00 54 1012.6
20260502224137 74 23 2.6 3.5 0.00 0.00 0.00 55 1012.6
20260502223638 74 43 2.6 3.5 0.00 0.00 0.00 54 1012.6
20260502223137 74 62 0.9 2.6 0.00 0.00 0.00 55 1012.8
20260502222617 74 72 0.9 2.6 0.00 0.00 0.00 54 1012.8
20260502222137 74 265 2.6 6.1 0.00 0.00 0.00 54 1012.9
20260502221617 73 309 1.7 5.2 0.00 0.00 0.00 55 1012.8
20260502221137 74 25 2.6 5.2 0.00 0.00 0.00 54 1012.8
20260502220617 73 24 4.3 7.0 0.00 0.00 0.00 55 1013.0
20260502220117 73 48 0.9 2.6 0.00 0.00 0.00 55 1012.9
20260502215618 74 41 0.9 2.6 0.00 0.00 0.00 55 1013.1
20260502215157 73 96 0.0 0.9 0.00 0.00 0.00 56 1013.1
20260502214617 73 75 2.6 3.5 0.00 0.00 0.00 56 1013.1
20260502214117 74 63 1.7 5.2 0.00 0.00 0.00 55 1013.3
20260502213617 72 0.0 0.0 0.00 0.00 0.00 58 1013.3
20260502213117 72 12 1.7 7.0 0.00 0.00 0.00 58 1013.4
20260502212617 72 79 0.9 1.7 0.00 0.00 0.00 58 1013.4
20260502212117 72 68 0.9 1.7 0.00 0.00 0.00 57 1013.5
20260502211617 72 96 2.6 6.1 0.00 0.00 0.00 58 1013.5
20260502211117 71 71 0.0 1.7 0.00 0.00 0.00 60 1013.5
20260502210618 71 62 1.7 3.5 0.00 0.00 0.00 60 1013.6
20260502210117 70 49 2.6 5.2 0.00 0.00 0.00 60 1013.6
20260502205617 70 62 1.7 3.5 0.00 0.00 0.00 60 1013.6
20260502205117 70 123 0.9 2.6 0.00 0.00 0.00 61 1013.8
20260502204617 70 113 0.9 2.6 0.00 0.00 0.00 60 1013.8
20260502204117 71 75 2.6 5.2 0.00 0.00 0.00 60 1013.7
20260502203617 71 77 2.6 5.2 0.00 0.00 0.00 61 1013.9
20260502203117 70 106 0.0 1.7 0.00 0.00 0.00 62 1013.9
20260502202617 69 28 2.6 3.5 0.00 0.00 0.00 62 1013.9
20260502202157 69 350 1.7 3.5 0.00 0.00 0.00 62 1014.1
20260502201638 69 131 1.7 5.2 0.00 0.00 0.00 62 1014.1
20260502201117 69 36 0.9 3.5 0.00 0.00 0.00 62 1014.0
20260502200617 68 15 0.9 2.6 0.00 0.00 0.00 64 1014.3
20260502200117 68 48 3.5 6.1 0.00 0.00 0.00 63 1014.2
20260502195617 68 112 0.9 1.7 0.00 0.00 0.00 64 1014.2
20260502195137 67 97 0.9 1.7 0.00 0.00 0.00 64 1014.3
20260502194616 68 37 0.9 5.2 0.00 0.00 0.00 64 1014.4
20260502194118 67 111 0.9 1.7 0.00 0.00 0.00 65 1014.5
20260502193618 67 80 0.0 0.9 0.00 0.00 0.00 66 1014.5
20260502193117 66 0.0 0.0 0.00 0.00 0.00 67 1014.5
20260502192617 66 119 1.7 5.2 0.00 0.00 0.00 67 1014.5
20260502192117 65 217 1.7 3.5 0.00 0.00 0.00 68 1014.7
20260502191617 67 48 1.7 3.5 0.00 0.00 0.00 66 1014.7
20260502191117 65 325 1.7 2.6 0.00 0.00 0.00 68 1014.8
20260502190617 65 83 0.9 2.6 0.00 0.00 0.00 68 1014.8
20260502190116 65 97 0.9 2.6 0.00 0.00 0.00 68 1014.9
20260502185637 64 122 0.9 2.6 0.00 0.00 0.00 70 1014.9
20260502185118 65 7 2.6 5.2 0.00 0.00 0.00 68 1014.9
20260502184618 64 77 0.0 0.9 0.00 0.00 0.00 70 1015.1
20260502184118 64 58 0.9 1.7 0.00 0.00 0.00 69 1015.2
20260502183617 65 63 1.7 2.6 0.00 0.00 0.00 68 1015.3
20260502183137 64 0.0 0.0 0.00 0.00 0.00 70 1015.3
20260502182617 63 61 0.9 1.7 0.00 0.00 0.00 70 1015.5
20260502182117 64 37 1.7 5.2 0.00 0.00 0.00 70 1015.3
20260502181637 63 56 1.7 2.6 0.00 0.00 0.00 71 1015.4
20260502181117 63 98 0.0 0.9 0.00 0.00 0.00 71 1015.4
20260502180638 62 337 2.6 6.1 0.00 0.00 0.00 72 1015.4
20260502180118 62 78 0.0 0.9 0.00 0.00 0.00 73 1015.4
20260502170137 57 347 2.6 3.5 0.00 0.00 0.00 83 1015.8
20260502164117 56 0.0 0.0 0.00 0.00 0.00 86 1015.9
20260502163618 55 82 0.0 1.7 0.00 0.00 0.00 86 1015.9
20260502163117 55 0.0 0.0 0.00 0.00 0.00 87 1015.9
20260502162618 55 78 0.9 1.7 0.00 0.00 0.00 86 1015.9
20260502162117 55 0.0 0.0 0.00 0.00 0.00 87 1016.0
20260502161617 55 84 0.0 0.9 0.00 0.00 0.00 89 1016.1
20260502161117 54 0.0 0.0 0.00 0.00 0.00 89 1016.1
20260502160617 54 0.0 0.0 0.00 0.00 0.00 89 1016.3
20260502160257 53 0.0 0.0 0.00 0.00 0.00 90 1016.4
20260502152117 52 0.0 0.0 0.00 0.00 0.00 93 1016.1
20260502151617 52 0.0 0.0 0.00 0.00 0.00 93 1016.2
20260502151117 51 0.0 0.0 0.00 0.00 0.00 93 1016.1
20260502150618 51 0.0 0.0 0.00 0.00 0.00 93 1016.1
20260502150118 51 0.0 0.0 0.00 0.00 0.00 94 1015.9
20260502140117 50 0.0 0.0 0.00 0.00 0.00 95 1015.9
20260502130617 50 0.0 0.0 0.00 0.00 0.00 95 1016.0
20260502130117 50 0.0 0.0 0.00 0.00 0.00 94 1015.9
20260502123618 51 0.0 0.0 0.00 0.00 0.00 94 1016.0
20260502123137 51 0.0 0.0 0.00 0.00 0.00 94 1016.2
20260502122617 51 0.0 0.0 0.00 0.00 0.00 93 1016.2
20260502122117 51 0.0 0.0 0.00 0.00 0.00 93 1016.2
20260502121657 51 0.0 0.0 0.00 0.00 0.00 94 1016.2
20260502121137 51 0.0 0.0 0.00 0.00 0.00 93 1016.4
20260502120617 51 0.0 0.0 0.00 0.00 0.00 93 1016.4
20260502120118 51 0.0 0.0 0.00 0.00 0.00 93 1016.4
20260502115617 51 0.0 0.0 0.00 0.00 0.00 94 1016.3
20260502115117 51 0.0 0.0 0.00 0.00 0.00 94 1016.2
20260502114617 51 0.0 0.0 0.00 0.00 0.00 94 1016.3
20260502114117 51 0.0 0.0 0.00 0.00 0.00 94 1016.3
20260502113617 51 0.0 0.0 0.00 0.00 0.00 93 1016.3
20260502113137 51 0.0 0.0 0.00 0.00 0.00 93 1016.3
20260502112637 51 86 0.0 0.9 0.00 0.00 0.00 93 1016.3
20260502112157 51 0.0 0.0 0.00 0.00 0.00 93 1016.5
20260502111617 51 0.0 0.0 0.00 0.00 0.00 93 1016.5
20260502111118 51 0.0 0.0 0.00 0.00 0.00 93 1016.4
20260502110618 51 0.0 0.0 0.00 0.00 0.00 93 1016.6
20260502110117 51 0.0 0.0 0.00 0.00 0.00 92 1016.4
20260502105637 51 0.0 0.0 0.00 0.00 0.00 92 1016.7
20260502105137 51 89 0.0 0.9 0.00 0.00 0.00 91 1016.6
20260502104637 51 118 0.0 0.9 0.00 0.00 0.00 91 1016.9
20260502104117 51 0.0 0.0 0.00 0.00 0.00 91 1017.0
20260502103616 51 145 1.7 3.5 0.00 0.00 0.00 91 1017.0
20260502103118 51 0.0 0.0 0.00 0.00 0.00 91 1016.9
20260502102617 51 110 0.0 1.7 0.00 0.00 0.00 91 1016.7
20260502102117 51 0.0 0.0 0.00 0.00 0.00 92 1016.3
20260502101617 51 0.0 0.0 0.00 0.00 0.00 92 1016.1
20260502101117 51 0.0 0.0 0.00 0.00 0.00 92 1016.2
20260502100617 51 0.0 0.0 0.00 0.00 0.00 91 1015.9
20260502100117 51 0.0 0.0 0.00 0.00 0.00 91 1015.8
20260502091117 53 0.0 0.0 0.00 0.00 0.00 89 1015.9
20260502090617 53 0.0 0.0 0.00 0.00 0.00 89 1015.8
20260502090117 53 0.0 0.0 0.00 0.00 0.00 89 1015.7
20260502071117 55 0.0 0.0 0.00 0.00 0.00 80 1015.7
20260502070657 56 0.0 0.0 0.00 0.00 0.00 80 1015.6
20260502070117 56 0.0 0.0 0.00 0.00 0.00 80 1015.6
20260502065617 56 0.0 0.0 0.00 0.00 0.00 79 1015.5
20260502065117 57 0.0 0.0 0.00 0.00 0.00 77 1015.5
20260502064637 57 0.0 0.0 0.00 0.00 0.00 77 1015.6
20260502064117 58 0.0 0.0 0.00 0.00 0.00 73 1015.6
20260502063618 58 0.0 0.0 0.00 0.00 0.00 76 1015.6
20260502063117 58 0.0 0.0 0.00 0.00 0.00 74 1015.6
20260502062637 59 84 0.0 0.9 0.00 0.00 0.00 72 1015.5
20260502062117 59 93 0.0 0.9 0.00 0.00 0.00 76 1015.7
20260502061117 60 96 0.0 0.9 0.00 0.00 0.00 72 1015.4
20260502060637 60 0.0 0.0 0.00 0.00 0.00 73 1015.4
20260502060118 61 0.0 0.0 0.00 0.00 0.00 72 1015.2
20260502055617 61 0.0 0.0 0.00 0.00 0.00 71 1015.1
20260502055138 61 0.0 0.0 0.00 0.00 0.00 70 1015.1
20260502054617 61 0.0 0.0 0.00 0.00 0.00 70 1015.0
20260502054137 61 0.0 0.0 0.00 0.00 0.00 68 1015.1
20260502053617 61 0.0 0.0 0.00 0.00 0.00 70 1015.0
20260502053137 61 0.0 0.0 0.00 0.00 0.00 68 1014.9
20260502052637 61 0.0 0.0 0.00 0.00 0.00 71 1014.7
20260502052117 61 0.0 0.0 0.00 0.00 0.00 69 1014.6
20260502051617 61 0.0 0.0 0.00 0.00 0.00 69 1014.6
20260502051117 61 0.0 0.0 0.00 0.00 0.00 69 1014.6
20260502050617 61 120 0.9 0.9 0.00 0.00 0.00 69 1014.7
20260502050117 61 0.0 0.0 0.00 0.00 0.00 69 1014.4
20260502045617 61 90 0.0 0.9 0.00 0.00 0.00 69 1014.5
20260502045117 61 0.0 0.0 0.00 0.00 0.00 69 1014.5
20260502044617 62 0.0 0.0 0.00 0.00 0.00 68 1014.5
20260502044137 62 0.0 0.0 0.00 0.00 0.00 67 1014.4
20260502043617 62 0.0 0.0 0.00 0.00 0.00 66 1014.4
20260502043117 62 0.0 0.0 0.00 0.00 0.00 66 1014.4
20260502042618 62 85 0.0 1.7 0.00 0.00 0.00 64 1014.3
20260502042117 63 86 0.0 1.7 0.00 0.00 0.00 64 1014.4
20260502041618 63 60 0.9 1.7 0.00 0.00 0.00 63 1014.2
20260502041137 63 59 2.6 2.6 0.00 0.00 0.00 62 1014.2
20260502040617 63 107 0.0 0.9 0.00 0.00 0.00 62 1014.1
20260502040117 63 0.0 0.0 0.00 0.00 0.00 62 1013.9
20260502035617 63 0.0 0.0 0.00 0.00 0.00 60 1013.8
20260502035117 63 0.0 0.0 0.00 0.00 0.00 59 1013.8
20260502034617 64 0.0 0.0 0.00 0.00 0.00 59 1013.7
20260502034118 64 0.0 0.0 0.00 0.00 0.00 59 1013.8
20260502033657 64 0.0 0.0 0.00 0.00 0.00 58 1013.6
20260502033117 64 0.0 0.0 0.00 0.00 0.00 58 1013.6
20260502032617 64 0.0 0.0 0.00 0.00 0.00 60 1013.5
20260502032117 65 0.0 0.0 0.00 0.00 0.00 58 1013.3
20260502031617 65 0.0 0.0 0.00 0.00 0.00 57 1013.3
20260502031137 65 0.0 0.0 0.00 0.00 0.00 54 1013.4
20260502030617 65 0.0 0.0 0.00 0.00 0.00 56 1013.3
20260502030117 66 0.0 0.0 0.00 0.00 0.00 57 1013.1
20260502025617 66 0.0 0.0 0.00 0.00 0.00 56 1013.1
20260502025138 66 0.0 0.0 0.00 0.00 0.00 56 1013.2
20260502024617 67 0.0 0.0 0.00 0.00 0.00 55 1013.1
20260502024117 67 0.0 0.0 0.00 0.00 0.00 54 1013.1
20260502023617 67 85 0.0 0.9 0.00 0.00 0.00 52 1012.9
20260502023117 67 0.0 0.0 0.00 0.00 0.00 53 1012.9
20260502022637 68 0.0 0.0 0.00 0.00 0.00 54 1012.9
20260502022117 68 80 0.9 1.7 0.00 0.00 0.00 51 1012.9
20260502021617 68 45 1.7 1.7 0.00 0.00 0.00 52 1012.9
20260502021116 68 51 0.9 2.6 0.00 0.00 0.00 51 1012.7
20260502020618 69 79 1.7 5.2 0.00 0.00 0.00 50 1012.7
20260502020117 69 83 0.0 0.9 0.00 0.00 0.00 50 1012.8
20260502015617 69 0.0 0.0 0.00 0.00 0.00 49 1012.8
20260502015137 69 62 0.0 1.7 0.00 0.00 0.00 49 1012.8
20260502014617 69 0.0 0.0 0.00 0.00 0.00 50 1012.8
20260502014117 70 0.0 0.0 0.00 0.00 0.00 50 1012.7
20260502013617 70 82 0.9 2.6 0.00 0.00 0.00 47 1012.7
20260502013117 70 91 0.0 0.9 0.00 0.00 0.00 50 1012.7
20260502012617 70 70 0.9 2.6 0.00 0.00 0.00 47 1012.7
20260502012118 71 25 2.6 3.5 0.00 0.00 0.00 46 1012.8
20260502011637 71 68 0.9 2.6 0.00 0.00 0.00 47 1012.9
20260502011117 71 105 1.7 2.6 0.00 0.00 0.00 48 1013.0
20260502010618 71 60 0.9 2.6 0.00 0.00 0.00 49 1012.8